| time (UTC) | temp C | wind direction | speed KPH | gust KPH | rain 1hr cm | rain 24hr cm | rain mn cm | humidity % | barometer mb |
| 20260904204045 | 18 | 342 | 3.2 | 12.9 | 0.00 | 0.15 | 0.03 | 47 | 1015.3 |
| 20260904203548 | 18 | 325 | 4.8 | 12.9 | 0.00 | 0.15 | 0.03 | 48 | 1015.3 |
| 20260904203114 | 18 | 306 | 3.2 | 12.9 | 0.00 | 0.15 | 0.03 | 54 | 1015.3 |
| 20260904202541 | 18 | 315 | 3.2 | 11.3 | 0.00 | 0.15 | 0.03 | 52 | 1015.2 |
| 20260904202044 | 18 | 294 | 1.6 | 8.0 | 0.00 | 0.15 | 0.03 | 54 | 1015.2 |
| 20260904201600 | 18 | 298 | 3.2 | 6.4 | 0.00 | 0.15 | 0.03 | 56 | 1015.1 |
| 20260904201044 | 18 | 329 | 3.2 | 6.4 | 0.00 | 0.15 | 0.03 | 59 | 1015.1 |
| 20260904200543 | 18 | 319 | 1.6 | 8.0 | 0.00 | 0.15 | 0.03 | 57 | 1015.1 |
| 20260904200120 | 18 | 310 | 3.2 | 8.0 | 0.00 | 0.15 | 0.03 | 58 | 1015.2 |
| 20260904195545 | 17 | 310 | 3.2 | 14.5 | 0.00 | 0.15 | 0.03 | 58 | 1015.1 |
| 20260904195045 | 17 | 285 | 3.2 | 14.5 | 0.00 | 0.15 | 0.03 | 59 | 1015.2 |
| 20260904194606 | 18 | 311 | 6.4 | 14.5 | 0.00 | 0.15 | 0.03 | 58 | 1015.2 |
| 20260904194044 | 17 | 325 | 1.6 | 11.3 | 0.00 | 0.15 | 0.03 | 60 | 1015.2 |
| 20260904193546 | 17 | 310 | 6.4 | 11.3 | 0.00 | 0.15 | 0.03 | 58 | 1015.3 |
| 20260904193101 | 17 | 209 | 3.2 | 14.5 | 0.00 | 0.15 | 0.03 | 61 | 1015.3 |
| 20260904192543 | 18 | 312 | 4.8 | 14.5 | 0.00 | 0.15 | 0.03 | 59 | 1015.3 |
| 20260904192043 | 17 | 289 | 1.6 | 6.4 | 0.00 | 0.15 | 0.03 | 61 | 1015.4 |
| 20260904191600 | 17 | 239 | 1.6 | 6.4 | 0.00 | 0.15 | 0.03 | 62 | 1015.5 |
| 20260904191043 | 17 | 0 | 1.6 | 6.4 | 0.00 | 0.15 | 0.03 | 62 | 1015.6 |
| 20260904190546 | 17 | 331 | 1.6 | 4.8 | 0.00 | 0.15 | 0.03 | 63 | 1015.6 |
| 20260904190058 | 17 | 0 | 1.6 | 6.4 | 0.00 | 0.15 | 0.03 | 62 | 1015.5 |
| 20260904185546 | 16 | 331 | 1.6 | 6.4 | 0.00 | 0.15 | 0.03 | 62 | 1015.7 |
| 20260904185044 | 16 | 334 | 1.6 | 8.0 | 0.00 | 0.15 | 0.03 | 63 | 1015.7 |
| 20260904184554 | 16 | 0 | 3.2 | 8.0 | 0.00 | 0.15 | 0.03 | 63 | 1015.8 |
| 20260904184044 | 16 | 315 | 3.2 | 8.0 | 0.00 | 0.15 | 0.03 | 61 | 1015.8 |
| 20260904183544 | 16 | 314 | 1.6 | 8.0 | 0.00 | 0.15 | 0.03 | 63 | 1015.7 |
| 20260904183101 | 16 | 315 | 3.2 | 8.0 | 0.00 | 0.15 | 0.03 | 65 | 1015.7 |
| 20260904182544 | 16 | 332 | 3.2 | 8.0 | 0.00 | 0.15 | 0.03 | 67 | 1015.7 |
| 20260904182043 | 16 | 329 | 3.2 | 6.4 | 0.00 | 0.15 | 0.03 | 66 | 1015.7 |
| 20260904181557 | 15 | 323 | 3.2 | 6.4 | 0.00 | 0.15 | 0.03 | 69 | 1015.7 |
| 20260904181043 | 15 | 321 | 1.6 | 6.4 | 0.00 | 0.15 | 0.03 | 68 | 1015.7 |
| 20260904180546 | 15 | 294 | 1.6 | 4.8 | 0.00 | 0.15 | 0.03 | 69 | 1015.7 |
| 20260904180107 | 15 | 254 | 1.6 | 8.0 | 0.00 | 0.15 | 0.03 | 71 | 1015.7 |
| 20260904175543 | 15 | 238 | 3.2 | 8.0 | 0.00 | 0.15 | 0.03 | 70 | 1015.7 |
| 20260904175044 | 15 | 0 | 0.0 | 0.0 | 0.00 | 0.15 | 0.03 | 71 | 1015.6 |
| 20260904174607 | 15 | 0 | 0.0 | 1.6 | 0.00 | 0.15 | 0.03 | 70 | 1015.8 |
| 20260904174043 | 15 | 0 | 0.0 | 1.6 | 0.00 | 0.15 | 0.03 | 70 | 1015.7 |
| 20260904173545 | 15 | 0 | 0.0 | 1.6 | 0.00 | 0.15 | 0.03 | 70 | 1015.7 |
| 20260904173102 | 14 | 0 | 0.0 | 1.6 | 0.00 | 0.15 | 0.03 | 71 | 1015.6 |
| 20260904172545 | 14 | 0 | 0.0 | 0.0 | 0.00 | 0.15 | 0.03 | 72 | 1015.5 |
| 20260904172043 | 14 | 0 | 0.0 | 0.0 | 0.00 | 0.15 | 0.03 | 74 | 1015.4 |
| 20260904171603 | 14 | 0 | 0.0 | 3.2 | 0.00 | 0.15 | 0.03 | 75 | 1015.4 |
| 20260904171043 | 13 | 0 | 0.0 | 4.8 | 0.00 | 0.15 | 0.03 | 73 | 1015.4 |
| 20260904170543 | 13 | 311 | 1.6 | 4.8 | 0.00 | 0.15 | 0.03 | 73 | 1015.4 |
| 20260904170059 | 13 | 325 | 1.6 | 4.8 | 0.00 | 0.15 | 0.03 | 77 | 1015.4 |
| 20260904165543 | 13 | 325 | 0.0 | 4.8 | 0.00 | 0.15 | 0.03 | 78 | 1015.4 |
| 20260904165044 | 13 | 325 | 0.0 | 4.8 | 0.00 | 0.15 | 0.03 | 79 | 1015.2 |
| 20260904164556 | 13 | 325 | 0.0 | 4.8 | 0.00 | 0.15 | 0.03 | 78 | 1015.2 |
| 20260904164044 | 13 | 325 | 1.6 | 6.4 | 0.00 | 0.15 | 0.03 | 78 | 1015.1 |
| 20260904163544 | 13 | 325 | 1.6 | 6.4 | 0.00 | 0.15 | 0.03 | 79 | 1015.0 |
| 20260904163101 | 13 | 325 | 3.2 | 6.4 | 0.00 | 0.15 | 0.03 | 79 | 1015.0 |
| 20260904162544 | 13 | 325 | 1.6 | 6.4 | 0.00 | 0.15 | 0.03 | 78 | 1014.9 |
| 20260904162044 | 13 | 325 | 1.6 | 6.4 | 0.00 | 0.15 | 0.03 | 78 | 1014.9 |
| 20260904161617 | 13 | 325 | 3.2 | 6.4 | 0.00 | 0.15 | 0.03 | 76 | 1014.8 |
| 20260904161043 | 13 | 325 | 3.2 | 6.4 | 0.00 | 0.15 | 0.03 | 76 | 1014.7 |
| 20260904160544 | 13 | 325 | 3.2 | 6.4 | 0.00 | 0.15 | 0.03 | 71 | 1014.6 |
| 20260904160107 | 13 | 325 | 3.2 | 6.4 | 0.00 | 0.15 | 0.03 | 71 | 1014.5 |
| 20260904155544 | 13 | 325 | 1.6 | 6.4 | 0.00 | 0.15 | 0.03 | 69 | 1014.5 |
| 20260904155043 | 13 | 325 | 3.2 | 8.0 | 0.00 | 0.15 | 0.03 | 68 | 1014.4 |
| 20260904154605 | 13 | 325 | 3.2 | 8.0 | 0.00 | 0.15 | 0.03 | 68 | 1014.4 |
| 20260904154043 | 13 | 325 | 3.2 | 6.4 | 0.00 | 0.15 | 0.03 | 68 | 1014.4 |
| 20260904153543 | 13 | 328 | 3.2 | 8.0 | 0.00 | 0.15 | 0.03 | 69 | 1014.5 |
| 20260904153133 | 13 | 328 | 3.2 | 8.0 | 0.00 | 0.15 | 0.03 | 67 | 1014.4 |
| 20260904152543 | 13 | 321 | 3.2 | 6.4 | 0.00 | 0.15 | 0.03 | 68 | 1014.3 |
| 20260904152045 | 13 | 321 | 3.2 | 6.4 | 0.00 | 0.15 | 0.03 | 69 | 1014.2 |
| 20260904151557 | 13 | 321 | 3.2 | 8.0 | 0.00 | 0.15 | 0.03 | 68 | 1014.3 |
| 20260904151047 | 13 | 321 | 3.2 | 8.0 | 0.00 | 0.15 | 0.03 | 68 | 1014.3 |
| 20260904150543 | 13 | 321 | 3.2 | 8.0 | 0.00 | 0.15 | 0.03 | 69 | 1014.2 |
| 20260904150053 | 13 | 321 | 3.2 | 8.0 | 0.00 | 0.15 | 0.03 | 70 | 1014.1 |
| 20260904145547 | 13 | 321 | 3.2 | 6.4 | 0.00 | 0.15 | 0.03 | 70 | 1014.0 |
| 20260904145044 | 13 | 321 | 3.2 | 6.4 | 0.00 | 0.15 | 0.03 | 70 | 1014.0 |
| 20260904144603 | 13 | 321 | 3.2 | 6.4 | 0.00 | 0.15 | 0.03 | 70 | 1014.0 |
| 20260904144044 | 12 | 321 | 3.2 | 6.4 | 0.00 | 0.15 | 0.03 | 70 | 1014.0 |
| 20260904143544 | 12 | 321 | 3.2 | 6.4 | 0.00 | 0.15 | 0.03 | 73 | 1014.0 |
| 20260904143100 | 12 | 321 | 4.8 | 8.0 | 0.00 | 0.15 | 0.03 | 74 | 1013.9 |
| 20260904142546 | 12 | 313 | 4.8 | 8.0 | 0.00 | 0.15 | 0.03 | 74 | 1013.9 |
| 20260904142045 | 12 | 310 | 4.8 | 6.4 | 0.00 | 0.15 | 0.03 | 73 | 1013.8 |
| 20260904141557 | 12 | 311 | 3.2 | 6.4 | 0.00 | 0.15 | 0.03 | 73 | 1013.7 |
| 20260904141043 | 12 | 311 | 4.8 | 6.4 | 0.00 | 0.15 | 0.03 | 73 | 1013.7 |
| 20260904140544 | 12 | 316 | 4.8 | 6.4 | 0.00 | 0.15 | 0.03 | 73 | 1013.5 |
| 20260904140055 | 12 | 317 | 4.8 | 6.4 | 0.00 | 0.15 | 0.03 | 74 | 1013.6 |
| 20260904135544 | 12 | 317 | 3.2 | 4.8 | 0.00 | 0.15 | 0.03 | 74 | 1013.5 |
| 20260904135042 | 12 | 317 | 3.2 | 4.8 | 0.00 | 0.15 | 0.03 | 75 | 1013.5 |
| 20260904134553 | 12 | 317 | 3.2 | 6.4 | 0.00 | 0.15 | 0.03 | 74 | 1013.6 |
| 20260904134043 | 12 | 317 | 3.2 | 6.4 | 0.00 | 0.15 | 0.03 | 75 | 1013.5 |
| 20260904133543 | 12 | 317 | 3.2 | 6.4 | 0.00 | 0.15 | 0.03 | 75 | 1013.6 |
| 20260904133100 | 12 | 317 | 3.2 | 6.4 | 0.00 | 0.15 | 0.03 | 77 | 1013.5 |
| 20260904132544 | 12 | 317 | 4.8 | 8.0 | 0.00 | 0.15 | 0.03 | 79 | 1013.5 |
| 20260904132043 | 12 | 317 | 4.8 | 8.0 | 0.00 | 0.15 | 0.03 | 79 | 1013.5 |
| 20260904131619 | 12 | 317 | 4.8 | 9.7 | 0.00 | 0.15 | 0.03 | 80 | 1013.4 |
| 20260904131043 | 12 | 311 | 6.4 | 9.7 | 0.00 | 0.15 | 0.03 | 81 | 1013.4 |
| 20260904130543 | 11 | 306 | 6.4 | 8.0 | 0.00 | 0.15 | 0.03 | 82 | 1013.4 |
| 20260904130052 | 11 | 312 | 4.8 | 9.7 | 0.00 | 0.15 | 0.03 | 84 | 1013.3 |
| 20260904125543 | 11 | 313 | 4.8 | 11.3 | 0.03 | 0.15 | 0.03 | 87 | 1013.3 |
| 20260904125044 | 11 | 313 | 6.4 | 11.3 | 0.03 | 0.15 | 0.03 | 89 | 1013.3 |
| 20260904124555 | 11 | 321 | 6.4 | 11.3 | 0.03 | 0.15 | 0.03 | 91 | 1013.3 |
| 20260904124046 | 11 | 305 | 6.4 | 12.9 | 0.03 | 0.15 | 0.03 | 92 | 1013.3 |
| 20260904123543 | 11 | 319 | 6.4 | 14.5 | 0.03 | 0.15 | 0.03 | 93 | 1013.3 |
| 20260904123100 | 11 | 317 | 8.0 | 16.1 | 0.03 | 0.15 | 0.03 | 93 | 1013.4 |
| 20260904122543 | 11 | 312 | 9.7 | 16.1 | 0.03 | 0.15 | 0.03 | 94 | 1013.3 |
| 20260904122046 | 11 | 316 | 9.7 | 16.1 | 0.03 | 0.15 | 0.03 | 94 | 1013.4 |
| 20260904121600 | 11 | 317 | 9.7 | 14.5 | 0.03 | 0.15 | 0.03 | 94 | 1013.4 |
| 20260904121043 | 11 | 311 | 8.0 | 14.5 | 0.03 | 0.15 | 0.03 | 95 | 1013.3 |
| 20260904120543 | 11 | 317 | 6.4 | 12.9 | 0.03 | 0.15 | 0.03 | 95 | 1013.4 |
| 20260904115543 | 11 | 315 | 8.0 | 11.3 | 0.00 | 0.13 | 0.00 | 95 | 1013.4 |
| 20260904115043 | 11 | 318 | 6.4 | 11.3 | 0.00 | 0.13 | 0.00 | 95 | 1013.4 |
| 20260904114557 | 11 | 300 | 6.4 | 11.3 | 0.00 | 0.13 | 0.00 | 95 | 1013.4 |
| 20260904114043 | 11 | 313 | 6.4 | 11.3 | 0.00 | 0.13 | 0.00 | 95 | 1013.3 |
| 20260904113544 | 11 | 312 | 6.4 | 12.9 | 0.00 | 0.13 | 0.00 | 95 | 1013.1 |
| 20260904113057 | 11 | 313 | 6.4 | 12.9 | 0.00 | 0.13 | 0.00 | 95 | 1013.2 |
| 20260904112543 | 11 | 313 | 6.4 | 11.3 | 0.00 | 0.13 | 0.00 | 95 | 1013.1 |
| 20260904112045 | 11 | 311 | 6.4 | 11.3 | 0.00 | 0.13 | 0.00 | 95 | 1013.2 |
| 20260904111606 | 11 | 317 | 6.4 | 11.3 | 0.00 | 0.13 | 0.00 | 95 | 1013.2 |
| 20260904111046 | 11 | 315 | 6.4 | 11.3 | 0.00 | 0.13 | 0.00 | 95 | 1013.2 |
| 20260904110545 | 11 | 300 | 4.8 | 11.3 | 0.00 | 0.13 | 0.00 | 95 | 1013.2 |
| 20260904110104 | 11 | 312 | 4.8 | 9.7 | 0.00 | 0.13 | 0.00 | 95 | 1013.2 |
| 20260904105545 | 11 | 313 | 4.8 | 11.3 | 0.00 | 0.13 | 0.00 | 95 | 1013.3 |
| 20260904105046 | 11 | 313 | 6.4 | 11.3 | 0.00 | 0.13 | 0.00 | 95 | 1013.3 |
| 20260904104604 | 11 | 313 | 6.4 | 11.3 | 0.00 | 0.13 | 0.00 | 95 | 1013.2 |
| 20260904104051 | 11 | 315 | 4.8 | 12.9 | 0.00 | 0.13 | 0.00 | 95 | 1013.1 |
| 20260904103542 | 11 | 318 | 4.8 | 12.9 | 0.00 | 0.13 | 0.00 | 95 | 1013.1 |
| 20260904103105 | 12 | 306 | 6.4 | 11.3 | 0.00 | 0.13 | 0.00 | 95 | 1013.1 |
| 20260904102544 | 12 | 317 | 4.8 | 12.9 | 0.00 | 0.13 | 0.00 | 95 | 1013.0 |
| 20260904102045 | 12 | 319 | 6.4 | 14.5 | 0.00 | 0.13 | 0.00 | 95 | 1013.1 |
| 20260904101600 | 12 | 312 | 6.4 | 16.1 | 0.00 | 0.13 | 0.00 | 95 | 1013.0 |
| 20260904101043 | 12 | 331 | 4.8 | 16.1 | 0.00 | 0.13 | 0.00 | 95 | 1012.9 |
| 20260904100543 | 12 | 312 | 9.7 | 16.1 | 0.00 | 0.13 | 0.00 | 95 | 1013.0 |
| 20260904100218 | 12 | 316 | 8.0 | 14.5 | 0.00 | 0.13 | 0.00 | 95 | 1012.9 |
| 20260904095544 | 12 | 317 | 6.4 | 12.9 | 0.00 | 0.13 | 0.00 | 95 | 1012.9 |
| 20260904095044 | 12 | 313 | 6.4 | 11.3 | 0.00 | 0.13 | 0.00 | 95 | 1012.9 |
| 20260904094557 | 12 | 326 | 4.8 | 9.7 | 0.00 | 0.13 | 0.00 | 95 | 1012.9 |
| 20260904094043 | 12 | 317 | 3.2 | 12.9 | 0.00 | 0.13 | 0.00 | 95 | 1012.9 |
| 20260904093543 | 12 | 312 | 6.4 | 12.9 | 0.00 | 0.13 | 0.00 | 95 | 1012.8 |
| 20260904093104 | 12 | 321 | 4.8 | 9.7 | 0.00 | 0.13 | 0.00 | 95 | 1012.8 |
| 20260904092545 | 12 | 309 | 4.8 | 11.3 | 0.00 | 0.13 | 0.00 | 95 | 1012.8 |
| 20260904092048 | 12 | 320 | 4.8 | 12.9 | 0.00 | 0.13 | 0.00 | 95 | 1012.8 |
| 20260904091609 | 12 | 305 | 4.8 | 12.9 | 0.00 | 0.13 | 0.00 | 95 | 1012.8 |
| 20260904091045 | 12 | 321 | 6.4 | 12.9 | 0.00 | 0.13 | 0.00 | 95 | 1012.9 |
| 20260904090545 | 12 | 325 | 3.2 | 11.3 | 0.00 | 0.13 | 0.00 | 95 | 1012.8 |
| 20260904090057 | 12 | 296 | 6.4 | 12.9 | 0.00 | 0.13 | 0.00 | 95 | 1012.9 |
| 20260904085543 | 12 | 290 | 6.4 | 12.9 | 0.00 | 0.13 | 0.00 | 95 | 1012.9 |
| 20260904085046 | 12 | 321 | 6.4 | 12.9 | 0.00 | 0.13 | 0.00 | 95 | 1012.9 |
| 20260904084555 | 12 | 310 | 6.4 | 11.3 | 0.00 | 0.13 | 0.00 | 94 | 1012.9 |
| 20260904084042 | 12 | 312 | 6.4 | 11.3 | 0.00 | 0.13 | 0.00 | 95 | 1012.9 |
| 20260904083544 | 12 | 313 | 4.8 | 8.0 | 0.00 | 0.13 | 0.00 | 95 | 1012.9 |
| 20260904083111 | 12 | 314 | 3.2 | 8.0 | 0.00 | 0.13 | 0.00 | 95 | 1012.9 |
| 20260904082546 | 12 | 314 | 3.2 | 8.0 | 0.00 | 0.13 | 0.00 | 95 | 1012.9 |
| 20260904082048 | 12 | 314 | 4.8 | 8.0 | 0.00 | 0.13 | 0.00 | 95 | 1012.9 |
| 20260904081559 | 12 | 314 | 4.8 | 8.0 | 0.00 | 0.13 | 0.00 | 95 | 1012.8 |
| 20260904081043 | 12 | 315 | 0.0 | 3.2 | 0.00 | 0.13 | 0.00 | 95 | 1012.9 |
| 20260904080546 | 12 | 0 | 0.0 | 3.2 | 0.00 | 0.13 | 0.00 | 95 | 1012.9 |
| 20260904080053 | 12 | 0 | 0.0 | 4.8 | 0.00 | 0.13 | 0.00 | 95 | 1013.0 |
| 20260904075544 | 12 | 314 | 1.6 | 8.0 | 0.00 | 0.13 | 0.00 | 95 | 1013.1 |
| 20260904075048 | 12 | 315 | 1.6 | 12.9 | 0.00 | 0.13 | 0.00 | 95 | 1013.1 |
| 20260904074611 | 12 | 330 | 4.8 | 14.5 | 0.00 | 0.13 | 0.00 | 95 | 1013.0 |
| 20260904074044 | 12 | 310 | 6.4 | 16.1 | 0.00 | 0.13 | 0.00 | 94 | 1013.1 |
| 20260904073544 | 12 | 336 | 6.4 | 16.1 | 0.03 | 0.13 | 0.00 | 95 | 1013.1 |
| 20260904073102 | 12 | 315 | 8.0 | 16.1 | 0.03 | 0.13 | 0.00 | 94 | 1013.0 |
| 20260904072547 | 12 | 319 | 8.0 | 16.1 | 0.05 | 0.13 | 0.00 | 94 | 1013.1 |
| 20260904072043 | 12 | 283 | 8.0 | 19.3 | 0.08 | 0.13 | 0.00 | 94 | 1013.0 |
| 20260904071559 | 12 | 321 | 11.3 | 19.3 | 0.08 | 0.13 | 0.00 | 94 | 1013.0 |
| 20260904071043 | 12 | 307 | 9.7 | 17.7 | 0.08 | 0.13 | 0.00 | 94 | 1012.9 |
| 20260904070546 | 12 | 305 | 11.3 | 19.3 | 0.10 | 0.13 | 0.00 | 94 | 1013.0 |
| 20260904070126 | 12 | 311 | 11.3 | 19.3 | 0.10 | 0.13 | 0.00 | 94 | 1012.9 |
| 20260904065543 | 12 | 300 | 12.9 | 22.5 | 0.10 | 0.13 | 0.13 | 93 | 1012.9 |
| 20260904065046 | 13 | 310 | 12.9 | 22.5 | 0.10 | 0.13 | 0.13 | 93 | 1012.9 |
| 20260904064553 | 13 | 306 | 11.3 | 19.3 | 0.10 | 0.13 | 0.13 | 94 | 1012.8 |
| 20260904064043 | 13 | 296 | 9.7 | 19.3 | 0.10 | 0.13 | 0.13 | 93 | 1012.8 |
| 20260904063544 | 14 | 315 | 6.4 | 11.3 | 0.08 | 0.10 | 0.10 | 94 | 1012.9 |
| 20260904063105 | 14 | 311 | 3.2 | 8.0 | 0.08 | 0.10 | 0.10 | 94 | 1012.9 |
| 20260904062543 | 14 | 0 | 0.0 | 0.0 | 0.05 | 0.08 | 0.08 | 94 | 1013.0 |
| 20260904062043 | 14 | 0 | 0.0 | 8.0 | 0.03 | 0.05 | 0.05 | 94 | 1013.0 |
| 20260904061558 | 14 | 0 | 0.0 | 8.0 | 0.03 | 0.05 | 0.05 | 94 | 1012.9 |
| 20260904061044 | 14 | 158 | 1.6 | 9.7 | 0.03 | 0.05 | 0.05 | 94 | 1012.9 |
| 20260904060544 | 14 | 153 | 4.8 | 9.7 | 0.03 | 0.03 | 0.03 | 94 | 1012.9 |
| 20260904060100 | 14 | 149 | 4.8 | 9.7 | 0.03 | 0.03 | 0.03 | 94 | 1012.9 |
| 20260904055544 | 14 | 149 | 4.8 | 9.7 | 0.03 | 0.03 | 0.03 | 93 | 1012.9 |
| 20260904055045 | 14 | 149 | 4.8 | 9.7 | 0.03 | 0.03 | 0.03 | 93 | 1012.9 |
| 20260904054554 | 14 | 149 | 3.2 | 8.0 | 0.03 | 0.03 | 0.03 | 93 | 1012.9 |
| 20260904054044 | 14 | 149 | 3.2 | 8.0 | 0.03 | 0.03 | 0.03 | 93 | 1013.1 |
| 20260904053544 | 14 | 153 | 3.2 | 6.4 | 0.03 | 0.03 | 0.03 | 93 | 1013.1 |
| 20260904053101 | 14 | 153 | 1.6 | 4.8 | 0.03 | 0.03 | 0.03 | 93 | 1013.2 |
| 20260904052544 | 14 | 154 | 1.6 | 6.4 | 0.03 | 0.03 | 0.03 | 93 | 1013.3 |
| 20260904052044 | 14 | 154 | 1.6 | 6.4 | 0.03 | 0.03 | 0.03 | 93 | 1013.3 |
| 20260904051607 | 14 | 169 | 3.2 | 6.4 | 0.03 | 0.03 | 0.03 | 93 | 1013.2 |
| 20260904051043 | 15 | 130 | 1.6 | 6.4 | 0.03 | 0.03 | 0.03 | 92 | 1013.3 |
| 20260904050544 | 15 | 0 | 0.0 | 8.0 | 0.00 | 0.00 | 0.00 | 92 | 1013.4 |
| 20260904050057 | 15 | 0 | 0.0 | 8.0 | 0.00 | 0.00 | 0.00 | 92 | 1013.5 |
| 20260904045545 | 15 | 143 | 1.6 | 6.4 | 0.00 | 0.00 | 0.00 | 92 | 1013.5 |
| 20260904045045 | 15 | 137 | 1.6 | 8.0 | 0.00 | 0.00 | 0.00 | 92 | 1013.6 |
| 20260904044604 | 15 | 138 | 3.2 | 8.0 | 0.00 | 0.00 | 0.00 | 91 | 1013.6 |
| 20260904044043 | 15 | 121 | 3.2 | 8.0 | 0.00 | 0.00 | 0.00 | 91 | 1013.5 |
| 20260904043551 | 15 | 122 | 1.6 | 4.8 | 0.00 | 0.00 | 0.00 | 91 | 1013.5 |
| 20260904043102 | 15 | 129 | 0.0 | 3.2 | 0.00 | 0.00 | 0.00 | 91 | 1013.6 |
| 20260904042548 | 15 | 153 | 0.0 | 3.2 | 0.00 | 0.00 | 0.00 | 91 | 1013.6 |
| 20260904042044 | 15 | 0 | 0.0 | 3.2 | 0.00 | 0.00 | 0.00 | 91 | 1013.6 |
| 20260904041607 | 15 | 0 | 0.0 | 3.2 | 0.00 | 0.00 | 0.00 | 91 | 1013.5 |
| 20260904041044 | 15 | 0 | 0.0 | 3.2 | 0.00 | 0.00 | 0.00 | 90 | 1013.5 |
| 20260904040543 | 15 | 0 | 0.0 | 3.2 | 0.00 | 0.00 | 0.00 | 90 | 1013.4 |
| 20260904040110 | 15 | 0 | 0.0 | 4.8 | 0.00 | 0.00 | 0.00 | 90 | 1013.4 |
| 20260904035543 | 15 | 0 | 0.0 | 4.8 | 0.00 | 0.00 | 0.00 | 90 | 1013.3 |
| 20260904035044 | 15 | 136 | 0.0 | 4.8 | 0.00 | 0.00 | 0.00 | 90 | 1013.3 |
| 20260904034613 | 15 | 0 | 0.0 | 1.6 | 0.00 | 0.00 | 0.00 | 90 | 1013.4 |
| 20260904034045 | 15 | 0 | 0.0 | 1.6 | 0.00 | 0.00 | 0.00 | 89 | 1013.3 |
| 20260904033544 | 15 | 0 | 0.0 | 1.6 | 0.00 | 0.00 | 0.00 | 89 | 1013.3 |
| 20260904033104 | 15 | 0 | 0.0 | 1.6 | 0.00 | 0.00 | 0.00 | 89 | 1013.4 |
| 20260904032543 | 15 | 0 | 0.0 | 1.6 | 0.00 | 0.00 | 0.00 | 89 | 1013.3 |
| 20260904032043 | 15 | 0 | 0.0 | 1.6 | 0.00 | 0.00 | 0.00 | 89 | 1013.3 |
| 20260904031558 | 15 | 0 | 0.0 | 1.6 | 0.00 | 0.00 | 0.00 | 89 | 1013.2 |
| 20260904031044 | 15 | 0 | 0.0 | 1.6 | 0.00 | 0.00 | 0.00 | 89 | 1013.2 |
| 20260904030544 | 15 | 0 | 0.0 | 3.2 | 0.00 | 0.00 | 0.00 | 89 | 1013.3 |
| 20260904030056 | 15 | 0 | 0.0 | 4.8 | 0.00 | 0.00 | 0.00 | 89 | 1013.2 |
| 20260904025545 | 15 | 0 | 0.0 | 4.8 | 0.00 | 0.00 | 0.00 | 88 | 1013.2 |
| 20260904025049 | 15 | 252 | 0.0 | 3.2 | 0.00 | 0.00 | 0.00 | 88 | 1013.2 |
| 20260904024549 | 15 | 0 | 0.0 | 1.6 | 0.00 | 0.00 | 0.00 | 87 | 1013.3 |
| 20260904024048 | 15 | 0 | 0.0 | 1.6 | 0.00 | 0.00 | 0.00 | 87 | 1013.4 |
| 20260904023544 | 15 | 0 | 0.0 | 3.2 | 0.00 | 0.00 | 0.00 | 87 | 1013.4 |
| 20260904023100 | 16 | 0 | 0.0 | 3.2 | 0.00 | 0.00 | 0.00 | 86 | 1013.3 |
| 20260904022600 | 16 | 0 | 0.0 | 3.2 | 0.00 | 0.00 | 0.00 | 86 | 1013.4 |
| 20260904022045 | 16 | 0 | 0.0 | 3.2 | 0.00 | 0.00 | 0.00 | 86 | 1013.5 |
| 20260904021606 | 16 | 0 | 0.0 | 4.8 | 0.00 | 0.00 | 0.00 | 85 | 1013.5 |
| 20260904021044 | 16 | 0 | 0.0 | 4.8 | 0.00 | 0.00 | 0.00 | 85 | 1013.4 |
| 20260904020545 | 16 | 238 | 0.0 | 4.8 | 0.00 | 0.00 | 0.00 | 85 | 1013.4 |
| 20260904020057 | 16 | 207 | 0.0 | 4.8 | 0.00 | 0.00 | 0.00 | 84 | 1013.5 |
| 20260904015545 | 16 | 0 | 1.6 | 4.8 | 0.00 | 0.00 | 0.00 | 83 | 1013.5 |
| 20260904015045 | 16 | 0 | 0.0 | 4.8 | 0.00 | 0.00 | 0.00 | 83 | 1013.5 |
| 20260904014640 | 16 | 0 | 0.0 | 3.2 | 0.00 | 0.00 | 0.00 | 82 | 1013.5 |
| 20260904014045 | 16 | 0 | 0.0 | 4.8 | 0.00 | 0.00 | 0.00 | 81 | 1013.7 |
| 20260904013545 | 16 | 0 | 0.0 | 6.4 | 0.00 | 0.00 | 0.00 | 81 | 1013.7 |
| 20260904013059 | 16 | 0 | 3.2 | 6.4 | 0.00 | 0.00 | 0.00 | 80 | 1013.7 |
| 20260904012545 | 17 | 229 | 1.6 | 4.8 | 0.00 | 0.00 | 0.00 | 80 | 1013.7 |
| 20260904012045 | 17 | 0 | 1.6 | 6.4 | 0.00 | 0.00 | 0.00 | 79 | 1013.8 |
| 20260904011619 | 17 | 0 | 1.6 | 6.4 | 0.00 | 0.00 | 0.00 | 79 | 1013.7 |
| 20260904011046 | 17 | 250 | 1.6 | 4.8 | 0.00 | 0.00 | 0.00 | 79 | 1013.7 |
| 20260904010544 | 17 | 250 | 0.0 | 3.2 | 0.00 | 0.00 | 0.00 | 78 | 1013.7 |
| 20260904010103 | 17 | 0 | 0.0 | 4.8 | 0.00 | 0.00 | 0.00 | 77 | 1013.8 |
| 20260904005548 | 17 | 321 | 1.6 | 6.4 | 0.00 | 0.00 | 0.00 | 76 | 1013.8 |
| 20260904005044 | 17 | 321 | 1.6 | 6.4 | 0.00 | 0.00 | 0.00 | 76 | 1013.8 |
| 20260904004605 | 18 | 311 | 0.0 | 4.8 | 0.00 | 0.00 | 0.00 | 75 | 1013.8 |
| 20260904004045 | 18 | 311 | 0.0 | 8.0 | 0.00 | 0.00 | 0.00 | 74 | 1013.7 |
| 20260904003543 | 18 | 247 | 1.6 | 8.0 | 0.00 | 0.00 | 0.00 | 74 | 1013.8 |
| 20260904003104 | 18 | 0 | 1.6 | 4.8 | 0.00 | 0.00 | 0.00 | 74 | 1013.7 |
| 20260904002545 | 18 | 275 | 0.0 | 6.4 | 0.00 | 0.00 | 0.00 | 73 | 1013.8 |
| 20260904002047 | 18 | 0 | 3.2 | 6.4 | 0.00 | 0.00 | 0.00 | 72 | 1013.8 |
| 20260904001559 | 18 | 290 | 1.6 | 6.4 | 0.00 | 0.00 | 0.00 | 72 | 1013.8 |
| 20260904001044 | 18 | 282 | 3.2 | 6.4 | 0.00 | 0.00 | 0.00 | 71 | 1013.7 |
| 20260904000546 | 19 | 234 | 1.6 | 6.4 | 0.00 | 0.00 | 0.00 | 70 | 1013.7 |
| 20260904000058 | 19 | 242 | 1.6 | 4.8 | 0.00 | 0.00 | 0.00 | 71 | 1013.9 |
| 20260903235544 | 19 | 282 | 1.6 | 6.4 | 0.00 | 0.00 | 0.00 | 70 | 1013.9 |
| 20260903235045 | 19 | 282 | 1.6 | 6.4 | 0.00 | 0.00 | 0.00 | 69 | 1013.9 |
| 20260903234604 | 20 | 342 | 1.6 | 4.8 | 0.00 | 0.00 | 0.00 | 69 | 1013.9 |
| 20260903234045 | 20 | 0 | 1.6 | 9.7 | 0.00 | 0.00 | 0.00 | 68 | 1013.9 |
| 20260903233545 | 20 | 349 | 1.6 | 9.7 | 0.00 | 0.00 | 0.00 | 68 | 1014.0 |
| 20260903233113 | 20 | 232 | 3.2 | 6.4 | 0.00 | 0.00 | 0.00 | 67 | 1013.9 |
| 20260903232544 | 20 | 297 | 3.2 | 11.3 | 0.00 | 0.00 | 0.00 | 67 | 1014.0 |
| 20260903232045 | 21 | 254 | 3.2 | 11.3 | 0.00 | 0.00 | 0.00 | 65 | 1014.0 |
| 20260903231557 | 21 | 220 | 1.6 | 6.4 | 0.00 | 0.00 | 0.00 | 64 | 1014.1 |
| 20260903231044 | 21 | 253 | 1.6 | 4.8 | 0.00 | 0.00 | 0.00 | 64 | 1014.2 |
| 20260903230544 | 21 | 180 | 1.6 | 6.4 | 0.00 | 0.00 | 0.00 | 64 | 1014.1 |
| 20260903230057 | 21 | 98 | 1.6 | 6.4 | 0.00 | 0.00 | 0.00 | 63 | 1014.2 |
| 20260903225544 | 21 | 290 | 3.2 | 11.3 | 0.00 | 0.00 | 0.00 | 64 | 1014.1 |
| 20260903225044 | 21 | 223 | 1.6 | 11.3 | 0.00 | 0.00 | 0.00 | 64 | 1014.2 |
| 20260903224602 | 21 | 255 | 1.6 | 6.4 | 0.00 | 0.00 | 0.00 | 65 | 1014.3 |
| 20260903224047 | 21 | 300 | 1.6 | 6.4 | 0.00 | 0.00 | 0.00 | 65 | 1014.4 |
| 20260903223544 | 21 | 312 | 3.2 | 11.3 | 0.00 | 0.00 | 0.00 | 64 | 1014.3 |
| 20260903223114 | 22 | 232 | 1.6 | 14.5 | 0.00 | 0.00 | 0.00 | 62 | 1014.4 |
| 20260903222543 | 22 | 281 | 0.0 | 14.5 | 0.00 | 0.00 | 0.00 | 63 | 1014.4 |
| 20260903222045 | 22 | 311 | 3.2 | 6.4 | 0.00 | 0.00 | 0.00 | 62 | 1014.4 |
| 20260903221556 | 22 | 185 | 1.6 | 6.4 | 0.00 | 0.00 | 0.00 | 61 | 1014.5 |
| 20260903221044 | 22 | 0 | 1.6 | 6.4 | 0.00 | 0.00 | 0.00 | 62 | 1014.6 |
| 20260903220544 | 22 | 209 | 1.6 | 6.4 | 0.00 | 0.00 | 0.00 | 62 | 1014.6 |
| 20260903220117 | 22 | 0 | 0.0 | 6.4 | 0.00 | 0.00 | 0.00 | 64 | 1014.7 |
| 20260903215545 | 22 | 240 | 1.6 | 6.4 | 0.00 | 0.00 | 0.00 | 62 | 1014.7 |
| 20260903215044 | 22 | 133 | 0.0 | 14.5 | 0.00 | 0.00 | 0.00 | 63 | 1014.9 |
| 20260903214553 | 21 | 210 | 1.6 | 14.5 | 0.00 | 0.00 | 0.00 | 64 | 1014.9 |
| 20260903214044 | 22 | 222 | 3.2 | 11.3 | 0.00 | 0.00 | 0.00 | 63 | 1015.0 |
| 20260903213544 | 21 | 93 | 1.6 | 8.0 | 0.00 | 0.00 | 0.00 | 65 | 1014.8 |
| 20260903213100 | 21 | 281 | 1.6 | 8.0 | 0.00 | 0.00 | 0.00 | 66 | 1014.9 |
| 20260903212548 | 21 | 279 | 1.6 | 8.0 | 0.00 | 0.00 | 0.00 | 66 | 1015.0 |
| 20260903212045 | 21 | 325 | 1.6 | 4.8 | 0.00 | 0.00 | 0.00 | 67 | 1015.0 |
| 20260903211557 | 20 | 336 | 1.6 | 8.0 | 0.00 | 0.00 | 0.00 | 67 | 1015.0 |
| 20260903211044 | 20 | 277 | 1.6 | 11.3 | 0.00 | 0.00 | 0.00 | 67 | 1015.0 |
| 20260903210544 | 20 | 229 | 4.8 | 11.3 | 0.00 | 0.00 | 0.00 | 68 | 1015.0 |
| 20260903210058 | 20 | 0 | 3.2 | 8.0 | 0.00 | 0.00 | 0.00 | 68 | 1015.0 |
| 20260903205547 | 20 | 298 | 1.6 | 6.4 | 0.00 | 0.00 | 0.00 | 67 | 1015.0 |
| 20260903205044 | 20 | 248 | 1.6 | 6.4 | 0.00 | 0.00 | 0.00 | 69 | 1015.1 |
| 20260903204553 | 20 | 256 | 1.6 | 6.4 | 0.00 | 0.00 | 0.00 | 69 | 1015.1 |